CZ-6A DEB, 56671

Orbit data source: Space-Track

CZ-6A DEB, 56671 is space debris in SSO originally from a launch on Fri, 11 Nov 2022 UTC launched from the Taiyaun Space Center, China (TSC). Debris objects in space refer to the collection of defunct objects orbiting the Earth. Examples of debris include non-operational satellites, rocket bodies, and fragments generated from explosions, collisions, or faulty payload assembly.

Loading next visibility...
Identifier
56671, 2022-151AGX
Orbit
SSO
Country
Flag of CNCN / PRC
Related business
Manufacturer
SAST
Mission
Spacecraft
Bus & Motor
Unknown
Mass
Unknown
Launch date (UTC)
2022-11-11 (3 years ago)
Launch vehicle
Unknown
Launch site
Taiyaun Space Center, China (TSC)
Object type
Payload
Rocket body
Debris
Shape & HBR
Unknown shape, 0.1 m
Radar Cross Section
Small (<0.1 m²)

Expand to show TLE details & history
Last TLE update: 1 week ago

TLE from 1 week ago
0 CZ-6A DEB
1 56671U 22151AGX 26124.18309335  .00000233  00000-0  19422-3 0  9992
2 56671  98.9196  96.4928 0119748 200.4980 159.1354 13.94674277154154
Epoch: 2026-05-04T04:23Z
TLE epoch observation values (Epoch: 2026-05-04T04:23:39.265Z)
Latitude
-0.00007°
Longitude
168.50326°
Altitude
996.892 km
Speed
7.312 km/s
True Right ascension
06h 25m 58s
True Declination
0° 00' 00"
Sunlit
Object was in daylight at epoch
Visualization orbit readout
Latitude
Unknown
Longitude
Unknown
Altitude
Unknown
Speed
Unknown
Apparent Right ascension
Unknown
Apparent Declination
Unknown
Sunlit
N/A
Visualization observer readout
Local Sidereal Time
07:25:17
Azimuth
Unknown
Elevation
Unknown
Doppler factor
Unknown
Orbital elements
Apogee altitude
996.766 km
Perigee altitude
822.23 km
Semi-major axis
7,287.635 km
Eccentricity
0.01197
Inclination
98.9196°
RAAN
96.4928°
Arg. of periapsis
200.498°
True anomaly
159.61738°
Mean anomaly
159.1354°
Eccentric anomaly
159.37706°
Mean motion
3.4887 °/min
Orbital period
103.19 mins
BSTAR
0.00019422
Loading maneuver chart data...
Computing Atmospheric mass density...
Loading historical data...
Loading historical data...
Loading historical data...
Loading historical data...
Loading historical data...
Loading historical data...
Loading historical data...

Documentation

Showing up to 5 results
|